Regional Weather Roundup
Issued by NWS

Home | Current Version | Previous Version | Graphics & Text | Print | Product List | Glossary On
Versions: 1 2 3 4 5 6 7 8 9 10 11 12 13 14 15 16 17 18 19 20 21 22 23 24 25 26 27 28 29 30 31 32 33 34 35 36 37 38 39 40 41 42 43 44 45 46 47 48 49 50
000
ASUS43 KOAX 271902
RWRNE

WEATHER ROUNDUP FOR NEBRASKA
NATIONAL WEATHER SERVICE OMAHA NE
200 PM CDT TUE JUN 27 2017

NOTES: SATELLITE DATA IS BEING USED TO AUGMENT CLOUD COVER ABOVE
       12000 FEET.
       "FAIR" INDICATES FEW OR NO CLOUDS BELOW 12,000 FEET WITH NO
       SIGNIFICANT WEATHER AND/OR OBSTRUCTIONS TO VISIBILITY.

  * THESE STATIONS DO NOT REPORT WEATHER SUCH AS RAIN...SNOW OR FOG.

NEZ001>004-019>022-054>056-272000-
NEBRASKA PANHANDLE

CITY           SKY/WX    TMP DP  RH WIND       PRES   REMARKS
SCOTTSBLUFF    MOSUNNY   90  51  26 SW7       29.76F
ALLIANCE       SUNNY     84  56  38 S18G24    29.77F
CHADRON        CLOUDY    92  52  25 W16G22    29.69F
GORDON         FAIR      81  57  43 SW17G23   29.74S
SIDNEY         SUNNY     89  55  31 S13G21    29.82F
$$

NEZ057>060-069>072-079>082-272000-
SOUTHWEST NEBRASKA

CITY           SKY/WX    TMP DP  RH WIND       PRES   REMARKS
NORTH PLATTE   CLOUDY    74  62  66 SE16G22   29.84F
IMPERIAL       SUNNY     85  58  39 S20G30    29.82F
LEXINGTON      CLOUDY    76  64  65 S17G24    29.88F
MCCOOK         SUNNY     80  65  59 SE22      29.84F
OGALLALA       SUNNY     83  57  40 S14G26    29.81F
$$

NEZ005>010-023>029-035>040-094-272000-
NORTH CENTRAL NEBRASKA

CITY           SKY/WX    TMP DP  RH WIND       PRES   REMARKS
VALENTINE      SUNNY     87  57  35 S29G39    29.73F
AINSWORTH      CLOUDY    81  61  49 S24G32    29.78F
BROKEN BOW     MOSUNNY   81  63  54 S23G31    29.86F
O`NEILL        SUNNY     80  57  45 SE23G35   29.83F
ORD            SUNNY     81  59  47 S18G29    29.85F
THEDFORD       SUNNY     82  62  50 SE25G35   29.80F
$$

NEZ041-046>049-061>064-073>077-083>087-272000-
SOUTH CENTRAL NEBRASKA

CITY           SKY/WX    TMP DP  RH WIND       PRES   REMARKS
GRAND ISLAND   MOSUNNY   79  64  60 SE22G30   29.89F
AURORA         MOSUNNY   78  62  56 SE20G25   29.90F
HASTINGS       MOSUNNY   80  63  55 S18G26    29.90F
HEBRON         PTSUNNY   82  65  57 SE14      29.93F
HOLDREGE       PTSUNNY   75  62  63 S16G23    29.89F
KEARNEY *      CLOUDY    79  63  57 SE21G29   29.89F
YORK           MOSUNNY   77  63  61 SE16      29.92F
$$

NEZ011>018-030>034-042>045-272000-
NORTHEAST NEBRASKA

CITY           SKY/WX    TMP DP  RH WIND       PRES   REMARKS
NORFOLK        SUNNY     78  57  48 S21G30    29.90F
ALBION         SUNNY     80  58  48 SE18G26   29.89F
BLAIR          MOSUNNY   76  60  55 SE17      29.96F
FREMONT        SUNNY     77  60  55 SE17G24   29.96F
TEKAMAH        SUNNY     80  56  43 SE21G28   29.94F
WAYNE          SUNNY     78  56  45 S22G30    29.91F
$$

NEZ050>053-065>068-078-088>093-272000-
SOUTHEAST NEBRASKA

CITY           SKY/WX    TMP DP  RH WIND       PRES   REMARKS
LINCOLN        MOSUNNY   79  63  57 S18G26    29.94F
OMAHA EPPLEY   PTSUNNY   78  58  49 S15G24    29.97F
BEATRICE       SUNNY     78  65  64 SE16      29.95F
FALLS CITY     MOSUNNY   76  63  64 SE17G23   29.99F
NEBRASKA CITY  SUNNY     76  64  66 SE14      29.99F
PLATTSMOUTH    SUNNY     76  59  54 S20       29.98F
$$

NEZ044-045-051>053-067-272000-
OMAHA AREA

CITY           SKY/WX    TMP DP  RH WIND       PRES   REMARKS
OMAHA EPPLEY   PTSUNNY   78  58  49 S15G24    29.97F
BLAIR          MOSUNNY   76  60  55 SE17      29.96F
FREMONT        SUNNY     77  60  55 SE17G24   29.96F
MILLARD        SUNNY     78  62  57 SE14G22   29.97F
OFFUTT AFB     SUNNY     78  60  54 SE13G23   29.97F
PLATTSMOUTH    SUNNY     76  59  54 S20       29.98F
WAHOO          CLOUDY    78  58  50 SE17G26   29.95F
$$




USA.gov is the U.S. government's official web portal to all federal, state and local government web resources and services.